RH
89 93 92 91 95 95 96 94 91 92 92 90 89 88 89 91 90 87 88 84 83 84
91 92 93 92 93 95 94 89 90 89 90 90 89 86 86 89 84 86 88 86 86 88
90 91 92 92 93 93 94 90 90 84 84 88 86 84 86 88 84 85 88 87 85 86
91 91 92 94 93 93 92 90 90 87 88 88 85 84 85 86 84 85 84 83 82 82
91 91 93 93 91 84 83 86 84 82 83 83 81 83 84 89 83 84 84 81 87 90
90 92 92 88 81 79 79 80 82 81 86 86 82 84 84 84 84 84 82 82 84 90
91 91 89 86 83 81 82 82 85 87 86 89 90 90 91 91 90 87 86 84 85 87
89 87 86 88 90 89 85 86 89 93 94 93 92 89 94 93 93 92 90 92 90 90
88 89 91 93 90 90 92 93 93 94 92 93 85 92 91 90 91 86 87 94 93 92
90 91 91 93 92 93 95 96 97 96 94 95 95 91 90 90 92 92 94 96 95 92
92 92 92 92 93 95 96 97 96 96 95 95 93 88 89 89 88 88 91 92 94 92
95 94 95 96 96 95 97 96 95 94 96 96 95 90 88 85 86 91 92 88 87 89
96 96 96 94 96 96 94 95 95 96 94 90 94 90 79 85 93 97 95 81 76 83
97 97 95 95 95 96 94 94 97 96 95 94 90 85 81 81 93 93 91 77 86 91
Wind_Speed
6 4 5 5 4 4 4 4 4 5 4 4 3 3 2 1 1 3 3 3 2 1
6 6 6 7 5 4 4 4 5 5 5 4 3 3 3 2 2 2 3 3 3 2
7 7 6 5 6 6 5 6 6 5 4 4 4 4 4 2 3 6 1 2 3 2
6 6 6 6 5 6 5 6 6 6 5 5 5 4 4 4 4 4 4 3 3 2
6 5 6 5 5 5 6 5 6 5 5 5 5 4 4 4 4 4 4 4 4 3
5 5 6 5 5 5 6 5 5 5 5 5 4 3 3 4 3 5 5 5 5 4
5 6 5 5 5 5 5 6 5 5 5 5 4 4 3 2 2 2 4 5 5 4
4 4 4 5 5 6 6 5 4 5 3 3 4 3 4 4 3 3 3 3 4 4
4 4 4 5 6 6 6 5 5 4 4 3 3 5 7 4 2 3 4 4 3 3
5 4 4 5 6 7 8 6 5 4 5 5 3 5 3 4 1 2 3 3 4 3
5 5 5 5 6 5 5 6 5 5 4 4 4 9 8 8 4 3 4 4 4 4
5 5 6 7 7 7 6 5 5 5 6 5 5 8 7 5 3 3 3 2 3 3
5 5 6 7 7 5 7 7 5 6 5 8 5 8 8 5 2 2 2 2 2 6
4 5 5 5 5 6 5 5 6 5 5 5 5 5 9 8 3 2 2 2 2 2
Wind_Direction
221 216 218 210 203 205 200 200 195 198 199 218 216 222 195 164 155 125 111 123 111 104
224 219 218 214 204 200 199 202 201 190 194 200 214 218 202 184 154 119 106 140 138 113
224 222 220 202 209 202 199 190 175 178 179 188 204 206 193 191 209 121 148 182 149 125
236 223 213 208 208 202 181 177 171 172 175 192 202 205 205 152 228 121 182 174 164 154
242 216 206 203 196 176 174 160 158 165 169 181 197 188 211 169 172 160 180 203 141 123
240 204 201 188 163 155 147 151 151 154 162 171 175 174 183 206 174 180 163 170 154 167
217 205 183 160 163 156 151 141 145 157 167 166 172 187 176 183 173 158 157 155 146 155
209 174 153 157 149 149 140 138 142 146 174 190 198 203 182 189 186 189 169 138 151 140
176 161 166 154 156 140 132 136 152 175 189 194 210 198 207 185 186 197 181 168 152 143
160 171 177 161 154 161 162 166 182 197 193 181 172 201 193 155 194 244 228 186 170 155
166 176 167 171 184 176 175 180 179 179 185 179 193 212 215 190 188 231 198 186 169 158
183 181 177 189 192 189 184 180 170 177 179 181 179 203 211 203 179 188 186 168 174 174
198 196 196 205 200 190 175 168 171 187 180 179 166 203 212 159 158 187 184 184 186 205
206 201 207 196 181 183 173 163 169 154 143 145 171 205 188 172 162 182 174 144 150 229